GFSWCAN_sfc_thetae_159.txt.gz
Theta_e
310 310 310 310 310 311 311 311 311 311 311 309 307 305 305 304 304 302 299 301 298 292 292 294 294 293 293 293 289 295 295 295 293 287 285 286 285 286 284 283 280 280 278 281 284 283 282 288 289 289 291 294 296 297
309 309 309 309 310 310 310 310 310 311 311 309 307 305 304 304 304 304 296 300 301 293 292 297 297 298 297 298 295 295 295 293 295 289 291 288 285 286 283 280 285 281 282 279 282 283 288 288 288 294 296 293 296 294
309 309 309 309 309 309 309 310 310 311 311 309 307 305 304 304 304 303 299 299 297 293 293 294 295 300 302 301 302 294 298 300 298 300 293 290 286 287 282 282 282 284 286 283 283 286 284 287 292 296 300 297 297 296
308 308 308 308 309 309 309 309 310 310 310 309 307 305 303 304 304 303 298 300 297 293 288 293 300 300 304 303 301 301 301 303 302 299 294 291 286 289 285 284 282 284 285 282 284 285 286 288 290 294 296 297 297 298
305 306 307 308 308 308 309 309 309 310 310 309 306 304 303 304 304 303 300 300 300 294 289 292 299 301 303 303 301 301 299 296 298 295 292 289 291 288 288 286 283 286 283 281 281 285 284 285 291 294 293 294 295 294
303 304 306 307 308 308 308 308 309 309 310 309 307 304 304 304 301 298 293 299 300 298 292 288 299 298 301 304 302 300 299 299 297 292 292 293 291 289 284 283 285 285 287 286 285 286 285 288 292 294 293 294 294 293
302 303 304 306 307 308 308 309 309 310 309 307 305 303 303 302 301 293 293 299 302 300 294 291 292 299 300 304 305 303 304 298 296 293 293 293 292 290 286 282 286 286 288 288 291 288 287 290 289 293 293 294 295 294
302 302 303 304 306 307 308 308 309 309 308 305 303 303 302 302 301 297 301 302 302 297 298 290 291 295 302 301 301 302 300 294 293 293 292 291 292 290 284 287 288 289 288 290 289 291 291 292 292 292 294 293 292 291
303 302 303 303 305 307 307 308 308 308 305 303 303 301 300 298 294 298 303 303 302 298 293 293 289 289 300 299 299 301 301 292 293 290 291 291 289 284 287 288 288 289 288 287 290 291 291 290 290 291 291 291 290 290
303 304 304 305 306 306 307 308 308 304 303 302 300 296 293 298 304 306 300 294 294 296 297 291 295 290 296 297 296 297 299 293 288 289 292 289 286 291 292 291 291 290 291 291 288 288 289 289 289 290 290 290 290 290
302 303 304 305 306 307 307 308 304 302 300 297 294 294 302 304 302 298 293 292 292 291 295 294 295 292 299 294 295 297 295 294 288 290 288 287 285 289 294 291 292 293 293 293 293 292 292 291 290 290 290 290 290 289
302 303 304 304 305 306 307 306 303 298 297 298 298 299 300 298 295 291 291 294 292 290 296 295 296 295 299 299 295 295 293 292 286 292 289 286 289 292 293 292 293 294 293 293 293 292 292 292 291 291 291 290 290 290
301 303 303 304 305 306 307 304 301 302 301 300 297 294 292 292 286 287 284 289 290 296 298 297 296 298 296 296 295 294 291 289 295 289 289 291 291 293 294 293 292 293 294 293 292 292 292 292 292 291 291 291 292 290
301 302 303 304 305 306 306 303 301 301 299 290 289 283 286 285 287 290 291 292 297 297 297 297 296 295 296 294 295 290 293 294 286 285 288 292 292 293 295 295 293 292 293 293 293 292 292 292 292 293 292 292 291 290
301 302 303 303 304 305 304 302 301 300 295 288 289 283 285 290 293 295 296 296 299 299 297 294 295 296 294 292 293 291 289 287 290 290 295 293 294 294 295 295 295 294 293 293 294 292 292 292 292 291 292 292 292 290
300 301 301 303 304 304 302 300 297 296 293 290 290 288 291 291 292 293 295 296 299 298 298 298 294 291 291 293 290 289 288 287 293 296 297 295 294 295 295 296 296 295 294 294 294 294 292 291 291 291 292 292 291 291
299 298 303 304 302 300 298 295 293 289 288 287 288 293 293 292 292 294 297 298 300 298 295 295 290 290 293 291 289 292 291 296 298 298 296 296 296 296 296 296 297 296 295 294 294 294 293 292 292 291 290 291 292 293
296 299 304 301 297 297 295 294 290 287 286 288 286 290 293 294 294 295 298 299 299 298 297 294 296 292 290 288 291 296 297 299 298 298 296 297 298 297 295 295 296 296 295 295 294 293 292 291 291 291 292 292 291 292
299 299 302 299 297 293 289 291 292 287 288 291 292 292 293 294 296 298 300 301 302 302 299 296 293 292 293 296 296 298 298 299 298 296 296 298 298 297 296 296 296 295 294 294 293 292 292 292 291 291 291 292 291 292
301 301 300 299 299 291 289 290 294 291 289 292 294 292 293 294 296 297 298 300 300 299 296 294 294 297 298 300 300 300 302 300 297 295 295 296 298 297 296 295 294 295 294 294 293 291 292 291 292 291 291 291 290 290
299 299 299 298 293 293 292 291 290 292 293 291 293 293 292 294 296 297 297 300 298 297 295 298 299 300 301 302 302 302 302 300 299 299 297 295 297 297 295 295 295 294 293 293 292 291 291 292 291 291 290 290 291 292
296 297 294 294 290 291 290 293 293 294 291 292 292 293 292 291 294 296 299 298 297 299 300 300 301 301 300 300 302 302 303 302 301 299 295 295 296 295 294 294 294 293 293 293 293 292 293 293 292 291 291 291 290 292
296 295 292 291 288 287 287 294 289 291 288 289 291 289 290 291 294 300 297 298 300 302 303 302 301 302 302 302 303 303 303 302 302 301 299 299 299 299 297 295 295 294 293 293 295 294 294 291 290 292 293 292 292 292
297 290 287 287 287 285 291 287 289 288 289 287 286 285 288 291 296 295 293 296 300 302 301 301 301 300 300 300 301 302 303 304 304 302 301 300 298 298 298 297 296 296 296 296 295 295 294 294 291 293 293 293 293 292
286 286 287 284 289 287 285 286 287 287 285 287 286 287 290 294 292 291 292 295 298 301 302 301 301 302 301 301 302 302 303 304 303 302 302 302 299 298 298 298 296 296 297 295 294 294 294 295 294 294 294 294 293 293
282 286 285 286 286 285 285 284 285 286 287 286 287 290 292 291 288 288 293 297 299 301 301 301 301 300 300 302 302 301 303 305 305 304 304 303 300 297 297 296 295 295 298 299 297 295 295 295 295 294 294 293 288 294
281 283 286 290 289 288 287 288 289 289 287 286 288 288 289 285 286 292 299 301 301 303 304 303 301 302 303 302 303 304 305 306 306 307 308 305 305 305 301 298 297 300 300 299 299 298 297 297 296 296 296 297 296 295
287 288 284 286 286 288 286 287 288 288 289 293 292 287 287 288 291 297 299 303 303 303 302 303 303 304 303 303 304 304 304 306 306 306 306 306 306 306 305 303 305 293 301 301 300 300 300 300 299 298 297 296 296 297
286 289 289 286 287 288 288 288 290 293 296 294 291 291 293 298 300 298 302 303 305 304 301 301 301 302 302 304 304 305 306 305 303 300 300 298 300 302 303 303 303 302 303 301 289 294 301 300 300 299 298 298 298 298
286 290 287 286 286 286 290 292 293 297 298 297 297 297 297 299 302 304 303 304 301 303 304 303 302 302 302 302 302 302 305 306 305 303 301 300 302 306 302 303 304 303 303 303 302 299 285 295 292 299 298 298 298 297
290 289 287 287 286 289 291 293 294 297 297 297 297 295 294 297 302 305 305 303 302 305 302 301 300 302 302 302 302 302 301 304 304 304 305 305 305 305 304 302 303 304 304 303 302 301 300 299 300 300 299 299 298 296
288 287 287 285 287 292 294 292 292 293 295 295 295 296 297 296 295 301 304 304 303 301 296 299 301 301 304 305 306 305 292 305 305 305 304 304 305 304 304 303 302 301 301 302 301 301 301 301 300 299 298 298 298 297
287 288 288 287 288 288 291 293 292 292 294 292 292 294 294 293 290 297 305 304 303 303 303 304 304 304 304 303 304 304 296 305 300 291 290 291 293 299 305 305 302 300 299 300 301 300 299 298 298 298 296 294 293 293

GFSWCAN_sfc_thetae_162.txt.gz
Theta_e
309 309 309 310 310 310 310 310 311 311 312 312 313 309 305 305 305 302 299 305 300 296 297 298 299 296 297 298 294 301 299 300 294 290 290 289 288 290 287 286 283 282 281 283 285 285 283 290 288 284 289 292 295 297
308 308 308 308 309 309 309 309 310 310 310 311 312 310 306 305 305 304 296 304 305 297 296 302 302 303 302 301 299 298 297 298 296 291 292 291 287 289 288 283 290 285 285 282 284 285 289 289 287 290 297 292 295 295
305 306 306 307 308 308 308 309 309 310 310 311 312 310 307 305 305 304 299 300 300 295 296 300 301 306 308 306 307 296 302 304 302 302 295 294 287 288 286 287 286 288 289 285 285 287 287 288 289 294 297 295 295 296
303 304 304 305 306 307 308 308 309 310 310 310 311 309 306 305 305 304 299 301 300 297 289 298 306 303 307 308 307 306 305 305 302 303 296 292 289 293 288 289 286 288 288 285 286 287 286 289 288 292 295 296 296 296
303 303 303 304 305 306 307 308 308 309 309 310 311 308 305 303 304 304 302 302 303 296 292 295 303 307 308 308 307 307 305 300 299 297 293 293 296 292 291 289 288 288 285 284 285 285 285 285 287 295 294 294 297 295
302 302 302 303 303 305 306 307 308 309 310 311 311 307 304 304 303 299 293 302 302 300 292 290 304 303 305 307 308 307 306 302 301 296 295 300 297 293 288 287 287 288 289 288 286 286 285 288 292 295 293 293 294 294
301 302 302 303 303 303 305 307 308 309 310 310 308 305 304 304 302 294 293 301 302 301 294 292 296 304 305 306 308 305 306 303 301 297 296 298 295 294 290 287 287 290 290 289 291 289 286 290 290 293 293 293 294 293
300 302 303 302 302 303 305 306 308 309 309 308 305 303 304 302 301 296 300 302 303 297 297 292 293 299 306 304 304 309 304 301 300 298 299 296 297 294 287 290 290 291 290 291 290 292 292 293 293 293 294 293 291 290
299 300 302 304 304 304 305 306 308 308 307 304 303 303 301 298 295 298 304 304 303 298 292 295 293 294 305 303 306 305 305 297 303 296 298 296 297 290 291 291 290 291 290 290 291 292 292 291 291 292 292 291 289 289
298 299 301 303 304 305 305 306 308 307 304 303 300 295 292 299 305 305 299 293 294 295 295 291 299 295 301 303 302 303 301 299 293 297 300 295 296 296 294 295 293 292 292 291 291 290 290 289 290 290 291 291 291 290
298 298 299 302 304 304 305 306 307 304 301 297 293 295 305 306 303 299 293 290 291 290 296 297 299 296 303 297 298 304 299 296 290 294 294 294 294 295 296 294 294 294 294 293 293 293 293 292 290 290 290 290 290 290
298 298 298 301 303 304 305 306 304 300 297 297 298 301 300 299 296 292 291 295 294 292 298 297 299 300 303 306 300 301 297 297 289 301 293 291 296 296 294 293 294 294 294 293 293 293 293 292 292 290 290 290 290 291
298 298 298 301 303 303 305 306 303 302 302 301 296 293 293 292 287 286 287 291 291 298 300 301 300 303 304 303 300 299 293 293 302 293 293 297 297 295 295 294 293 295 295 294 293 293 293 292 293 292 290 291 292 292
298 298 298 300 302 303 304 305 303 302 300 292 289 285 289 289 292 294 295 293 298 301 303 303 301 300 303 298 300 292 298 300 290 288 291 298 298 296 296 296 294 293 294 294 293 293 293 292 291 292 293 293 293 292
299 298 298 300 302 303 304 305 303 301 295 289 289 286 289 296 299 299 298 297 300 303 303 300 302 301 299 295 298 295 292 289 293 294 298 300 299 299 296 296 295 295 295 294 295 294 294 294 293 294 295 295 295 294
298 297 299 301 302 303 304 303 297 297 293 289 289 288 296 294 294 294 294 297 301 303 305 302 298 295 294 297 292 290 290 289 297 301 302 301 299 299 299 299 298 298 297 297 296 295 295 295 295 294 295 295 295 294
297 294 300 302 303 304 302 295 294 290 289 288 289 295 296 295 294 296 298 299 305 302 298 300 293 292 299 294 292 297 295 300 303 303 304 302 301 300 301 300 299 299 298 296 296 296 295 295 295 294 292 293 295 295
296 299 300 300 301 298 295 294 290 288 286 290 291 293 294 296 295 298 300 303 302 302 301 298 302 294 293 289 295 301 303 305 306 306 304 303 302 302 301 301 300 299 298 298 297 297 296 295 294 294 295 295 295 295
298 300 300 301 298 294 290 291 292 287 290 294 295 294 294 295 297 299 302 305 306 307 305 301 296 295 296 300 299 302 304 305 305 304 304 304 304 302 301 300 300 300 299 299 298 296 296 296 295 295 295 295 295 296
298 299 299 300 299 291 289 289 294 290 290 294 294 293 294 293 296 298 299 301 303 303 299 297 298 300 301 304 306 305 307 308 305 302 301 302 304 303 301 300 299 300 298 298 298 294 295 295 295 295 296 296 295 295
297 298 299 299 293 293 292 291 291 292 295 293 296 296 294 296 296 297 298 302 300 299 298 302 303 305 307 308 309 310 308 307 305 307 303 300 303 303 301 300 300 299 298 297 296 295 293 294 295 295 294 294 296 296
297 299 292 294 289 290 290 293 293 296 295 294 295 296 294 293 294 297 303 299 297 299 302 303 303 305 305 305 306 308 309 309 309 305 298 299 301 301 300 299 298 297 297 297 297 295 296 296 295 294 294 294 293 294
297 295 292 291 288 288 289 295 290 292 289 292 295 291 291 294 297 303 296 298 299 303 305 305 306 307 306 307 308 308 309 308 306 306 304 304 303 303 301 300 300 298 297 297 298 297 296 292 293 293 294 294 294 294
297 291 288 288 289 286 292 289 291 291 292 289 289 289 291 294 300 297 294 297 302 305 305 306 306 305 306 306 305 306 308 309 308 307 307 304 302 302 302 301 301 301 301 299 298 298 297 296 293 295 295 295 295 295
287 287 288 285 290 288 287 287 288 288 287 289 288 288 291 298 293 292 292 296 300 302 304 306 305 305 303 304 306 307 310 308 307 305 307 307 305 304 303 303 302 302 302 299 298 297 297 297 297 297 296 296 296 296
284 287 286 287 287 287 287 285 286 287 288 287 289 294 296 294 289 289 296 301 303 305 305 305 304 303 304 306 305 306 307 310 309 306 307 308 306 304 302 301 300 300 303 301 299 298 297 298 297 297 297 296 290 296
283 285 289 294 292 291 289 291 292 290 288 287 291 291 291 287 288 295 304 306 307 308 310 309 307 306 306 306 308 309 309 310 309 310 312 310 309 308 304 302 302 304 303 302 301 300 299 299 299 299 298 299 299 298
289 289 286 289 289 291 289 290 289 288 291 295 294 289 288 289 292 301 305 307 306 305 308 309 310 309 309 308 308 308 308 310 311 311 312 312 311 310 309 307 308 293 303 304 303 302 302 302 301 301 301 301 302 302
289 292 291 288 289 290 291 291 292 297 300 297 293 292 294 301 304 305 307 307 309 309 307 305 306 309 308 309 309 309 307 307 304 302 301 302 302 306 310 309 305 307 307 305 290 295 302 302 303 303 304 304 304 304
289 295 290 289 288 288 293 298 297 300 302 301 302 301 302 304 306 310 308 307 305 307 308 307 307 307 305 305 306 306 308 309 309 306 303 303 305 309 310 307 304 308 308 307 305 303 286 299 296 303 302 303 303 302
295 294 290 291 290 293 296 299 301 300 301 301 302 300 300 304 306 309 306 307 305 309 308 306 306 307 306 305 305 304 304 307 308 307 308 309 309 310 310 308 305 308 308 307 305 304 303 302 304 304 304 303 302 299
294 290 290 287 290 296 298 296 296 296 298 299 299 301 301 298 296 303 306 305 307 307 300 304 306 306 308 308 308 307 291 308 308 309 307 309 309 308 309 306 304 306 307 307 307 306 305 304 305 305 304 303 303 303
292 293 292 291 291 290 295 294 293 294 296 296 295 294 295 295 292 298 305 307 307 307 307 308 308 308 308 307 308 306 299 309 300 289 290 291 293 298 305 306 305 305 304 306 306 306 305 305 306 305 304 303 303 299

GFSWCAN_sfc_thetae_165.txt.gz
Theta_e
306 307 308 308 308 308 309 309 310 310 310 311 312 313 310 306 305 303 305 306 299 295 301 305 303 299 300 300 297 303 301 301 300 291 291 291 290 291 289 291 287 285 284 286 288 286 283 290 289 283 286 288 293 296
305 306 306 306 306 306 308 308 309 310 310 310 312 312 312 307 306 305 299 303 304 297 301 308 306 305 303 304 301 303 301 301 301 294 293 293 291 290 288 286 294 287 288 285 285 285 291 291 285 289 294 293 294 295
304 304 304 304 304 305 306 307 309 309 310 310 311 312 313 307 306 305 300 301 301 295 301 305 304 309 311 309 310 300 304 307 305 305 296 295 290 293 286 288 290 290 292 287 286 289 288 289 289 289 294 295 296 297
302 303 303 303 304 304 304 306 307 309 309 310 310 311 312 308 305 305 300 301 298 295 292 302 310 307 311 311 310 310 308 308 306 305 298 295 291 296 291 290 289 290 291 287 288 290 288 291 289 289 294 296 295 295
301 302 302 303 303 303 304 305 306 307 309 310 311 312 310 307 305 305 303 302 303 295 295 298 304 309 311 310 308 310 308 304 299 300 297 294 297 294 296 293 289 290 287 285 285 286 285 285 288 292 293 293 294 293
300 301 301 302 303 303 303 303 305 307 308 310 311 312 308 305 304 302 294 305 305 302 294 294 306 305 308 309 309 309 306 304 302 300 298 299 301 296 290 290 290 289 291 289 287 286 285 287 289 295 292 293 294 293
299 300 301 302 303 304 304 303 305 306 308 309 310 309 305 304 303 295 294 299 303 302 294 293 300 307 307 308 308 309 307 306 304 300 298 297 298 296 292 288 290 292 292 291 291 289 287 291 287 293 293 294 294 293
298 299 299 300 302 304 305 305 306 307 308 309 307 305 304 304 302 297 305 301 303 297 299 293 298 301 309 303 302 310 305 304 302 299 299 297 300 300 290 293 294 293 294 292 291 293 292 293 293 293 294 293 291 291
298 298 299 299 301 303 304 305 306 307 308 305 304 304 301 297 296 300 304 303 303 299 292 294 295 295 308 303 305 307 307 298 303 297 297 301 298 295 296 296 294 293 292 292 292 292 292 292 291 292 291 290 288 287
298 298 299 299 300 302 304 305 306 307 305 304 301 294 292 301 305 305 299 294 294 295 295 291 300 296 304 302 300 302 305 299 293 297 304 298 296 301 298 297 296 294 294 293 291 290 290 290 290 291 290 290 289 289
298 298 299 299 299 301 303 305 306 304 301 298 293 294 303 306 301 298 293 289 290 289 293 296 298 296 305 298 298 303 301 302 292 297 296 293 294 298 299 296 296 295 295 294 296 295 293 292 291 290 290 290 290 290
299 299 299 299 299 300 303 304 305 302 299 298 299 302 301 297 294 291 290 293 293 292 299 300 301 302 304 309 301 301 296 300 290 304 295 293 299 298 297 295 296 295 294 294 295 295 294 292 292 291 291 291 291 292
298 299 299 299 299 300 302 303 305 303 302 301 297 293 293 292 286 287 288 292 293 298 301 302 300 304 305 305 301 300 293 295 304 296 292 299 301 299 296 295 294 296 296 295 294 294 294 292 292 292 291 292 293 293
298 299 299 299 299 299 301 302 304 303 301 293 290 285 289 289 292 295 297 297 301 303 302 301 303 302 302 299 299 293 299 301 293 290 292 300 302 300 296 296 295 294 294 293 293 293 293 293 292 292 292 293 294 294
299 299 299 299 300 299 301 302 304 303 296 290 290 287 292 299 300 302 302 301 304 302 303 302 303 301 300 296 299 297 293 290 294 294 300 302 303 300 297 296 295 295 295 294 294 293 293 293 293 292 294 295 295 295
298 298 299 300 300 300 302 303 300 299 294 290 289 289 297 298 299 300 300 300 301 300 303 304 299 296 295 296 293 292 290 290 297 302 302 304 303 300 299 297 297 297 297 296 297 296 295 295 294 294 295 295 296 296
298 296 299 299 301 302 301 297 295 292 290 289 290 297 298 298 298 300 299 297 302 299 297 299 294 293 300 295 293 299 297 302 302 303 305 306 304 301 302 300 299 299 298 298 298 298 298 299 298 296 296 297 298 298
297 299 300 300 300 300 297 296 292 289 286 292 293 297 300 301 298 298 300 301 299 299 300 296 301 296 294 291 295 299 302 303 305 306 306 306 306 304 303 302 301 301 300 300 300 299 298 297 296 295 296 296 297 297
298 298 299 300 299 295 291 290 292 287 292 297 298 300 300 299 300 300 300 302 304 306 303 300 297 296 297 299 300 302 304 304 306 307 307 307 306 305 304 303 302 301 301 300 300 299 299 298 298 297 297 296 294 295
298 298 298 298 299 292 288 289 294 291 292 297 299 298 296 296 299 298 299 300 301 302 299 297 297 301 301 302 306 306 306 307 306 303 303 304 305 305 304 303 302 303 302 301 300 296 298 297 297 298 298 297 297 297
297 298 298 297 294 293 290 290 292 295 297 294 298 296 295 299 297 295 297 301 297 298 299 301 302 306 307 309 308 310 309 309 307 306 302 302 304 304 303 303 303 302 300 299 298 296 295 297 298 298 297 297 298 299
297 299 294 295 290 291 289 293 294 297 296 295 296 297 295 294 295 297 299 296 296 300 303 304 304 305 306 306 307 309 309 309 310 306 300 301 303 302 302 303 301 300 300 299 299 297 296 298 298 298 297 297 296 299
297 295 292 291 287 286 289 298 292 294 290 293 296 293 294 295 298 300 295 299 300 304 304 306 305 307 308 307 308 309 309 309 307 307 306 306 306 305 304 304 303 301 300 300 300 299 298 294 295 296 296 296 296 296
297 290 288 288 290 288 293 289 291 291 293 292 292 290 293 295 300 297 294 297 302 304 304 304 304 305 306 307 305 306 309 309 307 307 307 306 305 303 305 304 304 304 303 302 300 299 299 297 294 295 295 295 295 294
287 287 288 286 291 289 288 289 289 290 289 291 289 290 293 297 293 293 294 299 303 303 303 306 306 305 304 304 304 306 310 308 306 305 307 308 306 305 303 303 304 305 305 302 299 299 298 297 296 296 296 296 296 296
285 289 287 289 290 289 289 287 288 288 290 289 290 294 296 293 291 291 296 302 302 304 304 305 303 304 304 307 306 307 307 309 309 307 307 307 306 304 302 301 300 302 306 304 301 299 298 297 297 297 297 296 290 297
284 287 292 296 294 293 292 293 293 291 290 289 292 292 292 289 289 296 304 306 308 310 312 310 308 306 304 306 308 310 310 311 310 309 309 309 308 308 306 303 302 304 306 305 303 301 299 298 299 299 299 299 299 299
290 290 287 290 291 293 289 291 290 290 292 295 295 291 290 291 294 304 306 309 310 312 311 311 311 309 309 309 309 309 309 310 312 312 312 312 310 309 309 309 308 294 306 307 304 302 302 301 301 301 301 301 301 302
290 293 293 289 291 291 292 292 293 298 301 298 295 294 295 303 306 307 308 311 312 311 309 308 309 311 310 310 309 309 309 308 305 303 301 303 306 308 310 310 308 308 307 305 287 295 302 302 303 302 302 302 304 305
291 295 292 291 289 290 295 299 298 302 304 304 303 302 302 304 308 312 311 309 308 308 310 309 309 308 306 305 304 305 309 310 308 305 302 301 303 309 310 311 308 308 305 304 303 303 287 299 297 305 304 304 304 304
296 296 292 293 292 296 297 299 302 302 301 301 303 301 299 302 307 309 308 309 310 311 309 307 307 308 306 305 304 303 303 309 309 308 307 307 308 310 312 311 310 308 307 308 306 304 303 302 304 304 303 303 303 301
293 292 292 289 292 297 300 297 298 298 299 300 300 302 302 300 298 306 307 309 309 309 300 302 305 305 307 307 308 309 292 308 309 310 308 309 308 310 312 311 311 309 307 306 307 304 304 303 303 303 304 303 304 303
293 293 294 294 293 292 296 296 295 295 297 297 295 297 298 298 295 301 307 310 310 310 308 307 308 308 309 309 309 307 300 309 300 289 291 290 290 298 306 309 310 307 306 306 306 304 303 303 305 305 304 303 304 303

GFSWCAN_sfc_thetae_168.txt.gz
Theta_e
304 305 305 305 306 305 305 306 307 309 310 311 312 312 313 311 307 304 303 307 299 294 301 306 308 303 304 302 295 299 299 301 299 293 292 291 290 291 290 291 289 287 284 284 285 284 280 289 288 281 283 285 290 292
303 304 304 304 304 304 304 305 305 306 309 310 311 312 312 313 307 306 298 306 304 296 301 306 306 308 308 306 301 301 300 301 303 297 295 294 291 293 291 285 294 287 289 285 285 285 289 290 286 290 289 290 291 294
303 303 303 303 303 304 304 304 305 307 308 309 310 311 312 312 308 305 301 302 301 295 298 304 307 312 313 311 311 298 305 307 304 307 299 294 291 296 288 289 289 292 293 288 287 287 287 289 291 290 290 293 294 295
301 302 302 303 303 303 303 303 304 305 306 308 309 311 312 312 309 306 301 302 298 294 290 302 314 309 313 312 311 310 306 309 307 305 300 296 293 299 293 293 290 291 292 287 287 289 288 291 290 289 289 295 294 296
300 301 301 302 302 303 303 304 304 305 306 307 309 311 311 311 307 305 304 303 303 295 291 296 305 310 312 312 308 309 309 307 301 299 298 295 298 297 296 295 290 292 288 285 284 286 285 285 288 290 292 292 293 293
299 300 300 301 302 302 304 305 305 305 306 308 309 310 311 307 305 301 295 305 305 301 293 290 305 305 309 310 309 307 308 306 303 301 299 299 302 297 291 290 292 292 293 290 286 286 285 287 290 291 292 293 293 292
299 299 299 300 300 301 303 304 306 306 307 308 308 310 307 305 303 297 296 299 301 304 293 290 298 307 309 307 307 307 311 307 305 302 299 299 300 298 294 291 289 293 295 293 292 290 287 288 288 291 291 293 294 293
299 299 299 299 300 300 301 303 305 306 307 308 307 306 305 304 303 299 305 303 303 298 297 290 295 301 310 303 301 308 308 308 306 302 301 299 301 299 292 296 295 297 295 293 291 292 291 290 291 291 291 292 291 290
299 298 299 299 300 300 301 303 305 306 306 306 305 304 302 299 296 300 304 304 303 299 291 292 292 294 308 305 305 308 309 300 305 298 298 300 298 294 298 298 296 295 293 292 293 292 291 289 288 291 290 289 288 289
299 298 299 299 300 300 300 302 305 306 305 303 302 297 294 300 307 305 297 294 293 295 294 290 298 294 302 302 300 302 305 299 295 299 303 298 297 303 301 299 297 295 294 294 292 290 290 287 287 288 287 288 289 288
299 299 299 299 299 300 300 302 304 303 301 299 295 294 303 306 301 297 292 289 289 288 292 294 296 295 303 297 298 303 300 301 293 297 295 296 296 299 300 297 297 296 295 296 296 294 293 290 290 287 287 287 288 289
299 299 299 299 299 300 300 301 303 303 301 299 299 302 301 297 294 290 290 292 290 291 298 298 301 302 303 306 299 301 297 299 291 301 295 293 299 301 299 296 296 296 296 295 296 294 293 292 291 290 289 289 289 291
298 299 299 299 299 300 300 300 301 303 302 301 297 293 292 292 286 286 287 292 294 299 302 303 300 302 303 304 300 299 294 294 302 295 293 298 300 300 298 296 295 297 296 296 294 295 293 292 292 291 291 291 292 292
298 298 298 299 300 300 300 300 300 302 300 293 290 285 287 288 290 294 295 298 302 304 303 303 302 300 304 299 299 294 297 298 292 290 292 300 301 299 298 297 296 295 295 294 294 294 293 292 291 292 293 294 293 292
298 298 298 299 300 301 301 301 301 302 297 291 290 286 291 297 300 301 303 300 304 306 303 300 299 299 299 297 299 296 293 290 293 293 299 301 302 299 298 297 296 296 295 294 294 294 293 292 292 292 294 296 296 296
298 297 298 300 301 301 302 304 302 300 295 292 290 288 295 296 298 301 302 302 303 303 302 300 293 295 296 297 294 293 291 290 296 302 303 303 302 299 299 297 297 298 297 296 295 295 294 294 293 293 295 295 295 296
297 294 299 300 300 301 301 298 296 293 291 289 289 295 295 295 296 298 301 302 304 299 293 294 293 294 299 295 293 297 295 299 303 304 305 305 302 299 300 299 298 299 298 298 297 296 296 296 296 295 293 295 297 297
295 298 300 300 300 300 300 297 293 291 287 290 291 294 297 298 298 299 302 304 300 297 296 294 299 295 294 292 295 298 301 305 305 306 306 306 304 302 301 299 299 299 298 298 298 299 297 296 296 296 296 297 297 297
297 299 300 300 299 295 291 292 294 287 290 294 295 297 297 299 301 303 303 304 302 303 299 297 295 295 295 300 301 302 303 305 304 306 306 308 306 304 303 302 301 300 300 299 299 297 298 298 297 298 297 297 296 296
299 299 299 299 298 292 288 288 293 289 289 292 296 296 297 298 300 301 300 299 299 296 294 294 296 300 302 304 305 302 307 308 305 303 303 305 304 304 304 303 301 302 301 301 300 297 299 299 298 298 297 296 295 295
297 297 298 298 294 292 289 290 289 294 296 294 297 298 296 299 298 298 298 300 295 294 295 300 302 304 309 309 306 308 307 308 306 305 304 303 305 303 303 304 304 303 301 300 299 297 296 297 298 299 299 298 298 298
295 299 297 296 290 290 289 293 292 293 294 296 297 298 296 295 296 297 300 295 295 298 301 302 303 306 304 304 306 308 310 309 310 306 303 302 303 303 302 302 302 301 301 300 300 298 297 299 299 298 298 298 297 299
298 297 293 292 288 287 288 297 291 292 289 293 296 293 294 296 298 301 295 298 299 303 304 304 307 308 307 306 306 306 309 308 307 307 306 306 306 306 304 304 304 302 301 301 301 299 298 295 296 298 298 297 298 297
297 290 288 287 288 287 293 290 293 292 293 291 291 290 293 296 300 294 293 298 301 305 304 306 305 305 306 307 307 307 308 308 308 308 308 306 305 305 306 305 304 304 304 303 301 301 299 298 295 297 296 296 296 296
286 287 288 285 291 288 288 288 288 289 287 290 289 291 294 298 294 293 295 298 301 302 304 304 304 304 304 305 306 307 310 308 307 306 308 308 306 306 305 306 305 305 305 303 301 299 299 298 296 295 295 294 294 295
283 289 286 289 289 288 289 287 288 289 290 289 291 295 297 295 291 292 297 301 302 304 305 305 305 304 304 308 304 306 308 310 310 307 308 309 307 305 304 302 302 303 306 305 302 300 298 297 295 295 295 294 289 295
285 288 292 296 295 293 291 293 294 292 289 289 292 292 293 289 290 297 304 306 306 309 309 309 308 307 306 307 308 310 308 311 310 308 310 310 310 310 307 304 303 305 307 306 304 302 299 298 296 297 297 297 297 297
289 292 288 292 292 294 290 290 290 289 291 295 295 291 291 292 295 304 306 308 311 311 310 310 311 308 309 311 309 307 309 310 311 311 310 311 311 311 311 310 309 295 306 308 305 303 301 299 298 298 298 298 298 299
290 293 293 290 291 291 291 291 292 296 299 298 295 294 297 302 305 306 305 308 310 309 307 306 308 308 306 307 306 309 308 307 305 303 302 303 305 307 310 310 308 307 307 306 289 297 302 301 301 301 301 301 302 303
292 295 292 291 290 290 294 297 298 301 303 303 302 302 303 305 309 310 306 307 307 308 309 308 308 308 306 306 305 306 308 308 308 305 303 302 305 309 310 309 308 308 307 306 304 301 287 296 295 301 301 303 303 303
296 295 293 293 292 297 299 302 303 302 301 301 302 300 299 302 307 309 308 308 308 308 309 307 307 308 307 306 306 304 304 308 309 308 307 307 307 309 311 311 311 310 306 307 304 301 301 300 301 301 302 302 303 301
296 293 293 290 293 298 300 299 298 298 299 299 299 301 302 300 298 304 307 308 309 307 299 303 306 307 309 309 309 308 295 308 308 308 307 307 307 308 311 312 312 311 307 305 302 304 303 302 302 302 303 302 303 303
295 295 296 295 294 292 297 297 295 295 297 297 295 297 298 298 296 303 308 310 310 310 308 308 310 310 310 309 308 308 303 306 298 290 290 289 289 297 309 311 311 310 308 306 306 306 305 302 302 304 305 301 299 299

GFSWCAN_sfc_thetae_171.txt.gz
Theta_e
303 303 304 304 304 304 304 304 304 305 305 308 309 310 312 312 312 303 302 305 298 293 295 301 304 298 299 298 293 297 293 296 294 287 286 285 284 287 286 289 288 285 282 278 282 280 278 288 287 280 283 285 286 287
303 304 302 302 303 303 303 303 304 304 306 307 307 308 311 312 312 306 298 305 304 296 295 301 301 302 301 301 299 297 293 292 298 290 289 291 287 288 287 283 293 282 287 283 284 283 289 288 285 290 287 285 287 288
302 302 302 302 302 302 303 303 303 304 305 306 307 308 310 312 312 307 301 301 299 294 295 296 300 306 310 306 308 294 297 302 301 300 294 293 287 290 285 287 289 291 293 286 284 288 287 287 290 290 288 288 291 294
301 301 301 302 302 302 303 302 305 305 306 306 307 308 310 311 311 308 300 301 297 294 287 294 307 302 308 307 309 306 302 303 304 299 294 293 288 296 288 289 290 290 290 287 285 288 286 290 288 288 287 293 292 293
300 300 300 300 301 301 302 303 304 305 306 307 308 309 309 310 310 307 303 303 301 294 289 290 297 302 307 309 306 307 304 302 298 296 293 293 294 293 292 291 288 289 285 283 282 286 284 284 287 289 291 291 291 292
300 300 300 300 300 301 301 302 304 305 305 307 307 309 309 309 306 300 295 303 304 301 291 287 299 299 303 307 306 304 304 303 300 297 296 297 299 295 290 286 291 288 291 290 286 287 285 287 290 290 291 292 292 292
299 300 300 300 300 300 300 301 302 303 305 307 307 309 309 306 303 297 296 299 302 302 292 288 291 304 305 306 304 303 305 303 303 300 296 296 297 296 292 283 288 289 294 292 292 291 287 288 286 288 292 293 293 294
299 299 299 299 300 300 301 301 302 303 305 306 307 306 305 304 303 299 304 304 302 297 295 288 290 296 307 301 298 305 302 302 302 299 298 295 297 295 289 292 293 296 294 292 292 292 289 289 290 288 291 292 290 291
299 299 299 299 299 299 300 301 302 304 307 306 305 304 302 299 296 299 305 305 302 297 290 291 288 288 304 302 302 302 304 296 303 297 295 296 294 289 294 293 294 293 291 291 292 291 289 288 288 288 289 289 289 290
299 299 299 299 300 299 300 300 301 303 304 303 302 297 294 300 305 304 298 294 294 293 293 287 293 290 296 295 297 300 301 295 292 296 298 293 293 297 296 294 293 294 294 294 291 289 288 287 287 286 286 288 289 290
299 299 299 299 300 300 299 300 301 302 303 300 296 295 302 306 300 296 291 289 289 287 290 290 292 290 299 292 294 299 296 297 289 293 292 290 289 295 296 294 294 295 295 295 294 293 291 289 287 286 287 288 289 289
299 299 299 299 299 300 300 300 300 300 299 298 298 300 301 297 293 289 289 291 288 288 295 293 296 297 300 304 297 298 294 296 289 299 293 287 294 296 295 294 294 294 295 295 294 293 291 290 288 287 287 288 290 291
298 298 299 299 299 299 300 300 301 301 301 301 296 293 292 291 285 285 284 289 290 296 301 300 294 301 302 303 299 298 293 291 299 292 290 294 297 296 294 294 294 295 295 294 293 293 292 290 290 288 288 290 291 291
298 298 298 298 299 299 300 300 301 300 298 293 290 284 287 286 287 290 291 295 300 302 300 300 298 297 300 296 298 293 296 297 290 286 289 296 296 295 295 295 295 294 294 293 293 293 292 291 290 291 291 291 292 292
298 298 298 298 299 299 301 301 301 301 296 290 290 283 287 292 295 298 300 301 302 301 299 298 298 298 296 293 295 296 292 289 291 289 296 297 297 296 294 295 295 294 293 293 294 293 292 292 291 292 292 293 294 294
298 297 296 298 299 300 301 302 301 300 295 291 290 287 291 291 292 296 297 297 303 301 301 300 294 290 293 295 293 292 290 288 293 298 299 298 297 296 295 295 296 296 294 294 294 293 293 292 292 293 295 293 294 294
297 293 298 299 299 300 301 298 297 292 290 289 287 291 291 291 290 291 294 296 303 299 294 294 289 290 297 293 292 296 293 297 300 301 301 299 297 296 296 297 297 296 295 294 294 294 294 294 294 294 292 294 295 295
293 296 300 299 299 298 298 296 292 290 286 288 287 290 294 295 294 295 297 302 301 297 296 292 296 291 291 291 292 298 299 301 304 302 301 300 299 299 298 297 297 297 297 296 295 295 295 294 293 293 294 295 295 294
296 298 299 300 299 295 290 291 293 285 287 290 291 293 293 292 294 295 297 303 303 303 298 296 291 291 294 298 299 300 301 301 302 302 302 301 300 299 299 299 299 297 297 296 296 295 295 296 296 295 296 296 294 295
299 299 299 299 298 291 288 288 292 287 285 289 292 290 291 292 294 296 299 299 299 297 293 292 292 296 300 301 304 304 303 302 304 301 300 301 300 300 299 299 298 298 297 297 297 295 296 296 296 297 296 296 295 294
298 297 298 297 293 291 288 288 288 289 291 290 293 292 292 294 295 295 296 300 296 294 292 295 296 300 305 303 304 307 305 305 303 303 301 300 301 301 300 300 301 299 298 297 296 295 295 295 296 296 294 294 294 294
294 298 294 294 290 290 288 291 289 292 291 291 292 294 292 292 292 294 299 295 294 296 297 297 300 303 303 302 304 307 309 306 307 304 302 300 300 300 300 301 300 299 298 298 297 295 295 296 298 298 296 296 295 296
296 295 291 291 286 285 284 293 288 289 286 288 291 288 292 293 296 301 294 296 297 300 300 301 303 304 303 306 307 307 308 307 305 305 304 303 303 303 302 301 301 300 298 298 299 297 295 294 295 295 295 295 295 296
297 290 286 287 284 282 290 288 291 290 290 288 287 288 291 295 300 295 292 295 299 301 300 301 303 302 305 305 304 303 304 306 307 306 306 305 302 302 302 302 302 302 301 300 299 297 296 296 294 295 296 295 295 293
285 285 285 283 288 285 285 286 287 287 286 288 287 288 292 298 292 292 292 296 300 301 301 303 303 303 303 303 305 306 308 306 305 304 305 306 305 304 303 303 302 303 303 300 298 297 296 296 295 294 294 294 293 294
281 287 284 286 286 285 285 284 286 287 288 287 290 293 296 293 290 290 296 300 302 303 305 304 302 302 303 305 304 306 306 307 307 305 306 306 305 304 302 301 300 300 303 302 299 297 296 295 295 294 293 292 289 293
282 286 290 293 293 291 289 291 292 290 289 288 291 291 291 288 289 295 296 302 305 306 309 308 307 305 305 305 308 308 309 309 307 308 309 309 307 307 305 303 301 302 304 303 301 299 297 295 294 294 294 293 293 294
289 291 287 291 291 293 289 290 290 289 290 294 294 290 290 291 293 300 299 305 309 310 309 309 310 309 307 307 306 307 306 307 306 310 309 309 309 309 309 308 307 295 305 305 303 301 299 297 295 295 296 295 295 296
289 293 293 289 291 291 291 290 291 294 297 297 293 293 296 302 304 303 305 306 309 308 306 303 304 307 308 309 309 308 309 306 304 303 302 302 303 305 307 307 303 304 305 301 290 297 300 298 298 298 298 297 297 297
290 294 290 290 288 288 292 297 294 296 299 300 302 301 303 305 307 308 307 306 305 306 306 306 306 304 304 303 303 304 307 307 306 304 302 301 303 307 307 306 306 305 305 303 300 296 287 294 291 296 297 299 299 298
296 293 292 292 292 295 296 300 300 298 300 301 303 300 299 303 307 308 306 308 306 305 306 305 305 304 304 303 303 303 302 306 307 305 304 305 307 307 309 309 309 307 306 305 302 299 297 298 298 299 299 299 300 299
295 293 293 291 293 299 301 298 298 299 299 299 299 301 301 300 298 303 306 307 307 304 298 301 305 306 307 307 306 304 296 304 305 306 307 307 308 309 308 309 310 308 306 304 303 301 299 299 298 298 299 299 301 302
294 294 295 294 294 293 297 297 295 296 297 295 294 296 297 296 294 300 307 309 308 307 306 306 307 307 308 307 305 303 300 303 295 288 289 288 287 292 308 310 309 307 304 303 302 302 301 300 298 299 298 296 296 297

GFSWCAN_sfc_thetae_174.txt.gz
Theta_e
303 303 303 303 303 303 303 303 303 303 304 305 306 306 307 310 312 304 302 304 299 293 294 298 300 294 294 295 292 293 290 290 288 285 282 282 279 283 284 285 285 284 282 279 281 277 277 290 287 280 283 285 285 285
302 303 302 302 302 302 303 302 303 303 305 306 306 306 307 309 311 309 299 304 304 296 295 297 299 300 300 299 295 293 289 289 290 289 288 285 280 282 283 281 291 284 287 284 283 282 290 291 286 289 288 284 285 285
302 302 302 302 302 302 302 302 303 304 305 305 306 306 307 309 311 309 301 301 299 294 294 294 293 302 302 300 303 292 291 295 298 301 293 287 287 286 285 280 285 290 293 286 285 287 288 288 289 289 288 285 289 293
300 300 301 301 301 301 301 302 302 303 304 305 306 307 308 308 309 309 300 301 298 294 287 291 300 298 304 301 301 302 299 301 298 295 291 290 289 290 284 286 284 287 288 287 285 288 287 289 288 288 286 288 292 293
300 300 300 301 301 301 301 301 301 302 303 304 305 307 308 309 309 307 303 302 301 294 289 290 295 297 298 298 299 301 300 297 295 291 288 290 291 292 289 288 280 287 283 284 282 286 284 285 288 289 285 290 291 292
300 300 300 300 300 300 301 301 301 302 303 304 306 307 309 309 306 301 295 299 303 300 291 286 292 293 297 298 300 299 300 296 296 293 294 296 295 294 289 280 286 287 289 290 287 287 286 288 289 289 289 291 293 294
300 299 300 300 300 300 300 301 301 302 304 306 306 308 309 306 302 296 296 300 302 302 292 287 288 294 299 299 299 298 298 298 297 298 296 292 294 297 291 284 283 291 292 291 293 291 287 289 286 288 291 292 294 295
299 299 300 300 300 300 300 300 301 302 303 307 307 306 305 305 303 298 301 304 302 297 295 287 287 289 298 296 294 301 299 300 301 298 296 290 291 290 289 289 292 291 291 290 292 291 289 290 289 289 291 291 291 292
299 299 300 300 300 300 300 300 301 301 303 304 305 305 302 299 296 297 305 306 302 296 290 289 287 285 296 297 298 301 302 295 302 297 292 291 289 286 290 290 290 291 289 290 292 290 290 288 288 289 289 289 289 290
299 299 300 300 300 300 300 300 300 301 302 304 301 297 294 299 305 303 298 294 292 293 293 286 292 288 291 290 289 293 295 294 289 294 297 289 286 291 291 291 291 291 293 294 291 289 289 287 286 287 286 289 290 291
299 299 299 299 299 300 300 300 300 301 303 298 295 294 299 305 299 296 291 288 289 286 290 290 290 288 295 288 288 294 290 294 286 288 288 284 282 290 291 291 291 295 295 294 293 292 290 289 287 287 286 289 290 291
299 299 299 299 299 299 299 299 299 295 295 295 295 299 298 295 293 289 288 290 288 287 289 287 293 292 294 300 294 293 292 291 285 293 288 282 289 291 291 291 292 294 295 294 293 291 290 289 288 287 288 290 290 292
299 298 298 298 299 299 299 299 300 301 299 298 296 292 291 289 284 285 282 287 288 292 295 298 295 297 299 299 295 293 290 287 294 288 286 289 291 292 291 291 291 294 295 294 293 292 291 289 288 288 288 291 292 292
299 298 298 298 298 299 299 299 300 298 294 292 289 282 285 284 286 288 287 291 297 298 296 297 297 294 296 290 293 291 293 293 287 282 286 292 291 292 292 293 294 293 293 293 292 292 290 289 288 288 290 292 292 292
299 298 298 298 298 298 299 299 300 295 294 289 287 282 284 288 290 292 294 295 298 300 297 296 295 293 290 291 293 293 290 287 287 283 289 291 292 292 291 292 293 293 293 293 293 292 291 291 290 290 291 292 293 294
298 297 295 298 298 298 299 299 298 292 289 288 287 286 287 287 287 290 291 290 295 296 298 295 290 289 291 293 291 290 287 283 287 291 292 292 291 291 291 292 292 292 293 294 293 293 292 292 291 291 292 294 294 294
297 292 297 298 299 299 300 292 291 290 286 286 285 288 288 288 287 287 287 289 295 294 290 290 287 288 295 289 290 292 288 292 293 293 293 292 291 291 292 293 295 293 292 292 293 293 293 294 295 293 290 293 294 295
292 293 297 298 297 295 292 293 288 286 284 286 284 286 289 290 289 290 292 294 293 292 292 288 291 287 288 286 290 296 294 298 301 298 294 293 293 293 294 292 294 294 292 292 292 294 293 293 293 293 293 294 293 294
294 295 296 298 297 293 287 289 289 282 284 286 288 289 288 289 290 291 291 292 292 294 295 293 289 288 289 295 297 299 300 298 298 296 294 295 294 294 294 294 295 293 292 292 291 291 292 293 294 294 295 295 292 292
299 298 298 299 298 290 287 287 291 286 283 284 286 286 286 287 290 290 291 292 292 295 292 290 289 291 293 297 300 301 303 302 301 296 294 294 295 295 294 295 294 294 293 292 292 292 292 292 293 295 294 295 294 292
297 297 298 297 294 292 288 287 286 288 288 287 288 287 288 287 287 287 288 291 290 291 289 293 293 294 297 298 303 302 302 303 302 300 296 294 295 295 294 294 294 293 292 293 292 292 292 292 294 295 295 295 295 294
295 298 294 294 288 288 286 288 285 287 288 287 287 287 285 286 287 289 292 289 290 292 293 294 295 296 296 298 302 302 303 306 305 304 298 296 296 294 294 296 294 294 293 294 294 293 293 293 293 294 294 294 293 294
296 293 289 289 285 285 281 288 283 283 280 282 286 284 285 287 290 293 288 290 292 295 296 297 298 298 299 302 303 304 305 305 303 302 301 300 299 298 297 297 297 295 293 292 295 294 293 292 294 294 294 293 293 292
296 287 286 284 282 276 285 283 287 286 284 282 284 284 287 291 295 292 288 290 295 297 298 298 299 297 301 301 299 300 302 303 303 304 301 299 297 296 298 298 298 298 297 295 294 293 292 292 293 293 294 294 293 293
282 283 284 278 284 281 282 283 283 284 282 285 285 286 289 293 289 290 289 293 296 297 299 299 299 298 298 299 301 300 303 303 302 299 300 301 299 298 299 296 296 297 297 295 293 293 292 292 293 293 293 292 292 292
275 283 281 284 283 282 282 281 283 284 286 285 287 291 293 290 288 289 292 294 296 298 298 298 297 297 297 301 300 299 302 305 303 302 299 302 302 300 298 295 294 294 298 298 295 294 293 293 292 292 293 292 289 293
279 283 286 290 288 288 286 288 290 288 286 286 289 290 289 288 287 292 294 298 298 303 303 303 302 302 301 300 301 303 307 307 306 304 303 305 303 302 301 300 297 297 298 298 296 295 294 293 292 292 292 291 292 292
285 287 285 289 288 290 287 287 288 287 288 291 291 289 289 290 287 296 297 303 304 304 302 303 304 305 303 303 304 304 304 305 308 307 303 302 303 303 302 302 302 294 300 299 298 296 295 294 293 292 292 291 291 293
286 289 290 287 288 289 289 288 289 291 295 293 292 292 292 299 302 302 303 303 303 302 300 299 300 303 302 302 303 303 306 305 302 299 296 296 297 299 302 299 297 302 302 298 290 294 296 295 293 293 294 293 293 294
288 292 289 289 288 287 290 293 290 292 294 296 299 299 300 301 301 302 303 301 300 299 300 300 299 300 300 299 300 301 304 304 302 299 296 296 298 301 300 300 299 299 301 300 297 293 286 290 288 292 293 294 293 293
294 293 290 290 288 290 292 293 295 297 296 296 298 295 295 298 302 303 304 303 302 302 301 301 301 301 301 301 300 298 298 301 300 300 300 300 302 301 301 301 301 301 301 300 298 296 295 293 292 294 294 295 296 293
293 292 292 290 290 294 297 294 295 295 296 295 291 294 294 295 295 298 304 304 300 298 294 301 302 303 305 302 301 300 294 301 302 303 303 301 301 302 304 304 304 304 303 300 298 297 296 296 294 295 295 295 296 297
292 292 293 292 291 290 292 292 293 293 291 291 292 292 293 294 293 297 303 306 303 304 304 305 306 307 305 302 300 299 296 295 290 286 287 287 286 291 301 302 303 303 302 301 301 298 297 296 294 294 294 292 291 295